This demonstration page uses our WeatherBlox Daily Observations layout. Learn more.

Left ArrowRight Arrow

38.88101, -77.10428

Hourly Observations for August 25, 2020

Temp ( °F °C ) Dew Point ( °F °C ) Humidity (%) Winds ( mph kmh ) Pressure ( in mb ) Visibility ( mi km ) Precip ( " mm )
12:52 am 00:52 Partly Cloudy 76 24.4 71 21.7 85 85 S 7 11 29.99 1016 10 16.0934 0 0
1:52 am 01:52 Mostly Cloudy 75 23.9 71 21.7 88 88 S 5 7 29.99 1016 10 16.0934 0 0
2:52 am 02:52 Mostly Cloudy 76 24.4 72 22.2 88 88 Calm 29.98 1015 10 16.0934 0 0
3:52 am 03:52 Partly Cloudy 75 23.9 73 22.8 94 94 S 7 11 29.96 1015 10 16.0934 0 0
4:52 am 04:52 Mostly Cloudy 74 23.3 72 22.2 94 94 S 6 9 29.95 1014 10 16.0934 0 0
5:52 am 05:52 Mostly Clear 74 23.3 71 21.7 91 91 SSW 6 9 29.95 1014 10 16.0934 0 0
6:52 am 06:52 Mostly Sunny 74 23.3 70 21.1 88 88 SSW 5 7 29.96 1015 10 16.0934 0 0
7:52 am 07:52 Mostly Sunny 77 25 70 21.1 79 79 S 3 6 29.97 1015 10 16.0934 0 0
8:52 am 08:52 Mostly Sunny 79 26.1 71 21.7 77 77 S 9 15 29.96 1015 10 16.0934 0 0
9:52 am 09:52 Mostly Sunny 85 29.4 69 20.6 59 59 WSW 6 9 29.97 1015 10 16.0934 0 0
10:52 am 10:52 Partly Cloudy 87 30.6 70 21.1 57 57 W 13 20 29.96 1015 10 16.0934 0 0
11:52 am 11:52 Mostly Cloudy 89 31.7 71 21.7 55 55 W 14 22 29.94 1014 10 16.0934 0 0
12:52 pm 12:52 Mostly Cloudy 87 30.6 70 21.1 57 57 W 16 26 29.92 1013 10 16.0934 0 0
1:52 pm 13:52 Partly Cloudy 86 30 66 18.9 51 51 W 10 17 29.91 1013 10 16.0934 0.001 0.001
2:52 pm 14:52 Mostly Sunny 90 32.2 67 19.4 47 47 W 8 13 29.88 1012 10 16.0934 0 0
3:52 pm 15:52 Mostly Sunny 91 32.8 70 21.1 50 50 WSW 10 17 29.86 1011 10 16.0934 0 0
4:52 pm 16:52 Mostly Cloudy 90 32.2 71 21.7 54 54 WSW 9 15 29.85 1011 10 16.0934 0 0
5:52 pm 17:52 Mostly Cloudy 90 32.2 71 21.7 54 54 W 12 19 29.84 1011 10 16.0934 0 0
6:52 pm 18:52 Mostly Cloudy 89 31.7 72 22.2 57 57 SW 12 19 29.84 1011 10 16.0934 0 0
7:10 pm 19:10 Mostly Cloudy with Nearby Thunderstorms 89 31.7 72 22.2 57 57 SW 12 19 29.84 1010 10 16.0934 0 0
7:17 pm 19:17 Mostly Cloudy with Thunderstorms 89 31.7 72 22.2 57 57 SW 12 19 29.84 1010 10 16.0934 0 0
7:31 pm 19:31 Windy with Storms Likely 87 30.6 73 22.8 63 63 W 28 44 29.86 1011 9 14.48406 0.001 0.001
7:52 pm 19:52 Mostly Cloudy with Light Thunderstorms 81 27.2 70 21.1 69 69 W 13 20 29.86 1011 10 16.0934 0.01 0.254
8:06 pm 20:06 Mostly Cloudy with Nearby Thunderstorms 79 26.1 69 20.6 72 72 W 13 20 29.89 1012 10 16.0934 0.001 0.001
8:12 pm 20:12 Mostly Cloudy with Light Rain 78 25.6 69 20.6 74 74 W 12 19 29.89 1012 10 16.0934 0.001 0.001
8:52 pm 20:52 Mostly Cloudy 76 24.4 69 20.6 79 79 W 10 17 29.91 1013 10 16.0934 0.001 0.001
9:52 pm 21:52 Mostly Cloudy 76 24.4 68 20 77 77 SSW 3 6 29.92 1013 10 16.0934 0 0
10:52 pm 22:52 Cloudy 77 25 67 19.4 71 71 undefined N/A 29.93 1014 10 16.0934 0 0
11:52 pm 23:52 Cloudy 78 25.6 66 18.9 67 67 VRB 7 11 29.94 1014 10 16.0934 0 0

Powered by AerisWeather